EW6571 Weather Reports


Display with metric or nautical units.
time (UTC)temp
F
wind
direction
speed
MPH
gust
MPH
rain 1hr
in
rain 24hr
in
rain mn
in
humidity
%
barometer
mb
20260906224530 76 131 3.0 9.0 0.00 0.00 0.00 24 1003.2
20260906223030 76 273 2.0 6.0 0.00 0.00 0.00 24 1003.2
20260906221526 76 241 2.0 9.0 0.00 0.00 0.00 23 1003.1
20260906220029 76 165 3.0 10.0 0.00 0.00 0.00 23 1003.4
20260906214524 77 242 3.0 12.0 0.00 0.00 0.00 24 1003.2
20260906213023 77 238 1.0 8.0 0.00 0.00 0.00 24 1003.3
20260906211536 76 238 3.0 9.0 0.00 0.00 0.00 23 1003.8
20260906210038 76 208 5.0 11.0 0.00 0.00 0.00 22 1003.8
20260906204520 77 123 5.0 11.0 0.00 0.00 0.00 23 1003.8
20260906203024 78 248 7.0 15.0 0.00 0.00 0.00 23 1003.9
20260906201535 78 116 5.0 11.0 0.00 0.00 0.00 22 1003.8
20260906200016 77 265 5.0 13.0 0.00 0.00 0.00 22 1004.0
20260906194514 77 244 8.0 16.0 0.00 0.00 0.00 22 1004.2
20260906193020 77 175 7.0 14.0 0.00 0.00 0.00 22 1004.4
20260906191509 76 205 2.0 11.0 0.00 0.00 0.00 21 1004.7
20260906190007 76 187 5.0 11.0 0.00 0.00 0.00 21 1005.1
20260906184505 75 152 6.0 16.0 0.00 0.00 0.00 20 1005.4
20260906183003 75 244 3.0 16.0 0.00 0.00 0.00 23 1005.5
20260906181500 75 220 5.0 10.0 0.00 0.00 0.00 24 1005.7
20260906180122 74 192 2.0 9.0 0.00 0.00 0.00 27 1005.9
20260906174603 74 103 2.0 10.0 0.00 0.00 0.00 27 1006.3
20260906173059 73 250 2.0 10.0 0.00 0.00 0.00 27 1006.5
20260906171552 72 292 2.0 8.0 0.00 0.00 0.00 30 1006.6
20260906170049 71 345 1.0 5.0 0.00 0.00 0.00 33 1006.9
20260906164545 70 36 1.0 4.0 0.00 0.00 0.00 34 1007.0
20260906163040 68 69 2.0 5.0 0.00 0.00 0.00 37 1007.2
20260906161539 67 101 1.0 6.0 0.00 0.00 0.00 39 1007.2
20260906160036 64 276 5.0 11.0 0.00 0.00 0.00 41 1007.4
20260906154533 62 240 1.0 4.0 0.00 0.00 0.00 52 1007.4
20260906153034 60 238 1.0 3.0 0.00 0.00 0.00 50 1007.5
20260906151524 58 238 1.0 3.0 0.00 0.00 0.00 51 1007.6
20260906150023 57 238 1.0 2.0 0.00 0.00 0.00 48 1007.6
20260906144513 56 238 0.0 3.0 0.00 0.00 0.00 59 1007.7
20260906143012 53 238 0.0 4.0 0.00 0.00 0.00 60 1007.8
20260906141505 52 238 0.0 2.0 0.00 0.00 0.00 64 1007.8
20260906140003 49 238 0.0 1.0 0.00 0.00 0.00 64 1007.8
20260906134505 47 238 0.0 2.0 0.00 0.00 0.00 68 1007.7
20260906133104 46 238 1.0 3.0 0.00 0.00 0.00 65 1007.7
20260906131556 47 238 0.0 4.0 0.00 0.00 0.00 63 1007.4
20260906130053 48 238 2.0 5.0 0.00 0.00 0.00 59 1007.2
20260906124653 49 248 1.0 4.0 0.00 0.00 0.00 53 1007.0
20260906123057 48 248 2.0 4.0 0.00 0.00 0.00 57 1006.9
20260906121549 48 248 4.0 5.0 0.00 0.00 0.00 61 1006.7
20260906120051 49 248 2.0 5.0 0.00 0.00 0.00 60 1006.7
20260906114547 48 248 2.0 4.0 0.00 0.00 0.00 64 1006.7
20260906113046 48 248 1.0 3.0 0.00 0.00 0.00 64 1006.6
20260906111547 47 249 1.0 3.0 0.00 0.00 0.00 66 1006.6
20260906110050 48 249 1.0 3.0 0.00 0.00 0.00 63 1006.4
20260906104539 51 249 0.0 4.0 0.00 0.00 0.00 56 1006.3
20260906103055 50 272 1.0 2.0 0.00 0.00 0.00 60 1006.2
20260906101538 51 272 1.0 4.0 0.00 0.00 0.00 58 1006.1
20260906100036 52 272 1.0 4.0 0.00 0.00 0.00 54 1005.9
20260906094533 52 272 1.0 3.0 0.00 0.00 0.00 55 1005.8
20260906093038 52 272 3.0 6.0 0.00 0.00 0.00 59 1005.7
20260906091533 52 306 2.0 4.0 0.00 0.00 0.00 58 1005.6
20260906090051 51 306 0.0 4.0 0.00 0.00 0.00 61 1005.7
20260906084529 50 306 1.0 4.0 0.00 0.00 0.00 62 1005.5
20260906083033 50 307 0.0 4.0 0.00 0.00 0.00 61 1005.5
20260906081624 53 307 1.0 3.0 0.00 0.00 0.00 56 1005.4
20260906080022 52 228 0.0 3.0 0.00 0.00 0.00 58 1005.2
20260906074522 52 228 0.0 2.0 0.00 0.00 0.00 58 1005.1
20260906073018 53 228 4.0 5.0 0.00 0.00 0.00 59 1005.1
20260906071517 54 228 2.0 5.0 0.00 0.00 0.00 54 1005.2
20260906070015 54 228 4.0 6.0 0.00 0.00 0.00 53 1005.2
20260906064514 53 228 3.0 4.0 0.00 0.00 0.00 56 1005.2
20260906063016 54 228 2.0 4.0 0.00 0.00 0.00 56 1005.3
20260906061512 53 228 2.0 5.0 0.00 0.00 0.00 54 1005.2
20260906060008 54 228 1.0 5.0 0.00 0.00 0.00 53 1005.3
20260906054507 54 228 4.0 5.0 0.00 0.00 0.00 56 1005.4
20260906053008 55 229 4.0 6.0 0.00 0.00 0.00 50 1005.4
20260906051508 54 234 4.0 7.0 0.00 0.00 0.00 54 1005.4
20260906050006 55 236 0.0 5.0 0.00 0.00 0.00 50 1005.5
20260906044506 58 236 3.0 4.0 0.00 0.00 0.00 46 1005.6
20260906043005 62 163 3.0 6.0 0.00 0.00 0.00 36 1005.6
20260906041507 61 157 1.0 5.0 0.00 0.00 0.00 40 1005.6
20260906040011 59 152 3.0 7.0 0.00 0.00 0.00 42 1005.5
20260906034504 57 202 3.0 5.0 0.00 0.00 0.00 50 1005.4
20260906033004 57 202 4.0 6.0 0.00 0.00 0.00 50 1005.4
20260906031503 58 197 3.0 5.0 0.00 0.00 0.00 47 1005.2
20260906030003 58 197 2.0 4.0 0.00 0.00 0.00 47 1005.1
20260906024502 59 197 4.0 7.0 0.00 0.00 0.00 47 1004.9
20260906023001 61 197 3.0 7.0 0.00 0.00 0.00 43 1004.6
20260906021502 61 197 3.0 7.0 0.00 0.00 0.00 40 1004.4
20260906020001 62 197 3.0 7.0 0.00 0.00 0.00 42 1004.3
20260906014601 63 198 5.0 7.0 0.00 0.00 0.00 44 1004.0
20260906013107 65 203 4.0 7.0 0.00 0.00 0.00 40 1004.0
20260906011602 69 210 5.0 7.0 0.00 0.00 0.00 35 1004.0
20260906010059 74 190 3.0 5.0 0.00 0.00 0.00 26 1004.0
20260906004600 78 225 3.0 8.0 0.00 0.00 0.00 20 1003.9
20260906003058 79 225 2.0 7.0 0.00 0.00 0.00 18 1004.0
20260906001557 80 244 1.0 4.0 0.00 0.00 0.00 18 1003.8
20260906000107 79 156 2.0 8.0 0.00 0.00 0.00 19 1003.9
20260905234619 80 220 5.0 11.0 0.00 0.00 0.00 17 1004.0
20260905233055 80 262 4.0 9.0 0.00 0.00 0.00 18 1004.0
20260905231559 80 254 2.0 9.0 0.00 0.00 0.00 18 1004.0